This demonstration page uses our WeatherBlox Daily Observations layout. Learn more.

Left ArrowRight Arrow

Hourly Observations for March 5, 2020

Temp ( °F °C ) Dew Point ( °F °C ) Humidity (%) Winds ( mph kmh ) Pressure ( in mb ) Visibility ( mi km ) Precip ( " mm )
12:53 am 00:53 Clear 25 -3.9 16 -8.9 69 69 WSW 9 15 30.26 1025 10 16 N/A
1:53 am 01:53 Clear 25 -3.9 16 -8.9 69 69 SSW 9 15 30.29 1026 10 16 N/A
2:53 am 02:53 Clear 22 -5.6 15 -9.4 75 75 WSW 12 19 30.31 1026 10 16 N/A
3:53 am 03:53 Clear 20 -6.7 13 -10.6 74 74 SW 9 15 30.32 1027 10 16 N/A
4:53 am 04:53 Clear 19 -7.2 13 -10.6 77 77 SSW 9 15 30.34 1027 10 16 N/A
5:53 am 05:53 Clear 17 -8.3 11 -11.7 77 77 SW 7 11 30.34 1028 10 16 N/A
6:53 am 06:53 Sunny 19 -7.2 11 -11.7 71 71 W 5 7 30.35 1028 10 16 N/A
7:53 am 07:53 Sunny 23 -5 15 -9.4 72 72 N N/A 30.35 1028 10 16 N/A
8:53 am 08:53 Sunny 29 -1.7 19 -7.2 66 66 ENE 7 11 30.32 1027 10 16 N/A
9:53 am 09:53 Sunny 34 1.1 20 -6.7 56 56 ENE 9 15 30.30 1026 10 16 N/A
10:53 am 10:53 undefined 43 6.1 21 -6.1 42 42 NNE 6 9 30.26 1025 N/A N/A
11:53 am 11:53 Sunny N/A N/A N/A N N/A N/A N/A N/A
12:53 pm 12:53 Sunny 50 10 11 -11.7 21 21 SW 9 15 30.19 1022 N/A N/A
1:53 pm 13:53 Sunny 50 10 11 -11.7 21 21 SW 7 11 30.15 1021 10 16 N/A
2:53 pm 14:53 Sunny 52 11.1 13 -10.6 21 21 WSW 9 15 30.12 1020 10 16 N/A
3:53 pm 15:53 Sunny 52 11.1 15 -9.4 23 23 SW 13 20 30.10 1019 10 16 N/A
4:53 pm 16:53 Sunny 50 10 17 -8.3 27 27 S 7 11 30.08 1019 10 16 N/A
5:53 pm 17:53 Sunny 44 6.7 18 -7.8 35 35 E 7 11 30.07 1018 10 16 N/A
6:53 pm 18:53 Clear 41 5 21 -6.1 45 45 ENE 8 13 30.04 1017 10 16 N/A
7:53 pm 19:53 Clear 41 5 20 -6.7 43 43 ESE 5 7 30.03 1017 10 16 N/A
8:53 pm 20:53 Clear 37 2.8 22 -5.6 54 54 E 6 9 30.01 1016 10 16 N/A
9:53 pm 21:53 Clear 36 2.2 21 -6.1 55 55 W 7 11 29.99 1016 10 16 N/A
10:53 pm 22:53 Clear 38 3.3 23 -5 55 55 SW 10 17 29.95 1014 10 16 N/A
11:53 pm 23:53 Clear 36 2.2 23 -5 59 59 WSW 13 20 29.99 1015 10 16 N/A

Powered by AerisWeather